CST,Max TemperatureF,Mean TemperatureF,Min TemperatureF,Max Dew PointF,MeanDew PointF,Min DewpointF,Max Humidity, Mean Humidity, Min Humidity, Max Sea Level PressureIn, Mean Sea Level PressureIn, Min Sea Level PressureIn, Max VisibilityMiles, Mean VisibilityMiles, Min VisibilityMiles, Max Wind SpeedMPH, Mean Wind SpeedMPH, Max Gust SpeedMPH,PrecipitationIn, CloudCover, Events, WindDirDegrees
2013-2-1,63,51,39,40,35,29,93,59,35,30.39,30.35,30.30,10,10,10,10,5,21,0.00,2,,345
2013-2-2,60,46,33,52,39,27,93,70,51,30.38,30.28,30.18,10,10,10,10,5,16,0.00,1,,131
2013-2-3,66,56,46,53,44,34,100,70,30,30.26,30.18,30.13,10,10,10,13,5,18,0.00,1,,298
2013-2-4,64,54,43,56,47,39,97,76,52,30.13,30.07,29.99,10,10,10,8,4,,0.00,5,,69
2013-2-5,66,60,55,61,57,55,100,95,77,30.04,30.01,29.96,10,8,0,13,4,,0.25,7,Fog-Rain,74
2013-2-6,66,60,53,61,56,53,100,94,70,30.17,30.08,30.04,10,5,0,10,5,,0.00,7,Fog-Rain,79
2013-2-7,75,66,55,66,60,55,100,88,51,30.02,29.87,29.78,10,7,0,23,9,32,1.95,6,Fog-Rain,24
2013-2-8,68,59,50,60,54,49,100,91,75,30.15,30.03,29.95,10,6,0,13,3,22,0.00,3,Fog-Rain,294
2013-2-9,62,55,48,55,50,43,88,79,65,30.27,30.19,30.15,10,10,10,12,7,,0.00,5,,99
2013-2-10,69,64,60,68,63,49,96,88,65,30.14,30.07,30.01,10,8,6,17,13,24,0.00,7,Rain,149
2013-2-11,75,67,59,70,63,55,100,92,81,30.10,30.06,30.02,10,6,1,17,11,22,0.48,7,Rain,55
2013-2-12,69,60,51,68,60,36,100,92,54,30.04,29.92,29.78,10,8,5,18,9,28,0.01,7,Rain,89
2013-2-13,69,58,46,67,52,44,96,85,56,30.06,29.92,29.80,10,9,6,15,8,23,0.04,6,Rain,304
2013-2-14,57,48,37,42,39,37,97,80,51,30.16,30.09,30.04,10,10,7,8,4,,0.00,2,,360
2013-2-15,62,48,35,44,38,34,100,79,39,30.17,30.10,30.05,10,7,1,12,2,,0.00,1,Rain-Snow,306
2013-2-16,55,46,35,40,26,15,71,46,23,30.30,30.16,30.06,10,10,10,17,10,32,0.00,2,Rain,329
2013-2-17,50,39,28,35,24,15,89,55,27,30.40,30.33,30.29,10,10,10,10,4,,0.00,0,,43
2013-2-18,62,54,46,54,43,36,75,60,44,30.32,30.23,30.06,10,10,10,24,13,30,0.00,3,,153
2013-2-19,69,56,43,61,52,30,96,75,34,30.21,30.08,30.01,10,8,2,20,12,26,0.48,6,Rain,288
2013-2-20,57,47,37,37,28,21,89,54,24,30.27,30.18,30.09,10,10,10,14,6,25,0.00,4,,22
2013-2-21,66,52,39,64,51,34,100,79,56,30.10,30.00,29.93,10,9,7,16,9,24,0.00,6,,103
2013-2-22,69,66,64,67,65,64,100,98,88,29.99,29.92,29.88,10,4,0,13,6,,1.04,8,Fog-Rain-Thunderstorm,135
2013-2-23,69,63,57,68,63,57,100,98,93,29.91,29.87,29.81,10,7,0,12,8,,0.24,8,Fog-Rain-Thunderstorm,297
2013-2-24,66,62,57,58,55,53,96,80,63,29.99,29.92,29.85,10,8,2,18,9,28,0.32,7,Rain-Thunderstorm,91
2013-2-25,64,62,59,65,61,57,100,96,80,29.87,29.71,29.55,10,6,1,23,14,36,2.69,8,Rain-Thunderstorm,88
2013-2-26,66,60,53,64,48,40,100,70,53,29.93,29.71,29.54,10,9,3,21,11,30,0.04,5,Rain,252
2013-2-27,61,53,45,49,42,35,93,69,44,30.04,29.98,29.93,10,10,10,14,4,,0.00,3,,253
2013-2-28,57,51,45,48,36,29,93,57,33,30.08,30.03,29.98,10,10,10,12,7,18,0.00,3,,323